Norwood, MA

8:10 PM EDT on April 19, 2018 (GMT -0400)
Norwood Memorial

Weather History for KOWD - February, 2013

Change the Weather History Date:

Monday, February 18, 2013

  Actual Average Record
Temperature  
Mean Temperature 22 °F -  
Max Temperature 30 °F 37 °F 61 °F (2008)
Min Temperature 15 °F 19 °F 1 °F (2014)
Degree Days  
Heating Degree Days 42    
Moisture  
Dew Point -1 °F    
Average Humidity 36    
Maximum Humidity 49    
Minimum Humidity 24    
Precipitation  
Precipitation 0.00 in - - ()
Sea Level Pressure  
Sea Level Pressure 29.98 in    
Wind  
Wind Speed 16 mph (West)    
Max Wind Speed 23 mph    
Max Gust Speed 37 mph    
Visibility 10 miles    
Events Snow    
Averages and records for this station are not official NWS values.
T = Trace of Precipitation, MM = Missing Value Source: NWS Daily Summary

Daily Weather History Graph

Daily Weather History Graph

Search for Another Location

Airport or City:

Astronomy

Feb. 18, 2013 Rise Set
Actual Time 6:36 AM EST 5:21 PM EST
Civil Twilight 6:07 AM EST 5:49 PM EST
Nautical Twilight 5:35 AM EST 6:22 PM EST
Astronomical Twilight 5:02 AM EST 6:55 PM EST
Moon 11:01 AM EST (2/18) 1:16 AM EST (2/18)
Length of Visible Light 11h 42m
Length of Day
10h 45m
First Quarter, 58% of the Moon is Illuminated
Feb 18
First Quarter
Feb 25
Full
Mar 4
Last Quarter
Mar 11
New
Mar 19
First Quarter

Hourly Weather History & Observations

Time (EST) Temp. Windchill Dew Point Humidity Pressure Visibility Wind Dir Wind Speed Gust Speed Precip Events Conditions
12:53 AM 17.1 °F 1.0 °F -0.9 °F 45% 29.70 in 10.0 mi WNW 18.4 mph 27.6 mph N/A   Mostly Cloudy
1:53 AM 17.1 °F -0.3 °F -0.9 °F 45% 29.72 in 10.0 mi WNW 21.9 mph 32.2 mph N/A   Clear
2:53 AM 16.0 °F -0.4 °F -0.9 °F 47% 29.75 in 10.0 mi West 18.4 mph 29.9 mph N/A   Clear
3:53 AM 16.0 °F 1.7 °F -2.0 °F 45% 29.78 in 10.0 mi West 13.8 mph 27.6 mph N/A   Clear
4:53 AM 16.0 °F 1.7 °F -0.9 °F 47% 29.83 in 10.0 mi WNW 13.8 mph 23.0 mph N/A   Clear
5:53 AM 16.0 °F 1.1 °F -2.0 °F 45% 29.86 in 10.0 mi WNW 15.0 mph 25.3 mph N/A   Clear
6:53 AM 15.1 °F 1.1 °F -0.9 °F 49% 29.91 in 10.0 mi WNW 12.7 mph 28.8 mph N/A   Clear
7:53 AM 17.1 °F 2.0 °F -0.9 °F 45% 29.93 in 10.0 mi West 16.1 mph 21.9 mph N/A   Clear
8:53 AM 19.0 °F 2.0 °F -0.9 °F 42% 29.96 in 9.0 mi WNW 23.0 mph 36.8 mph 0.00 in Snow Light Snow
9:53 AM 21.9 °F 9.2 °F -0.0 °F 38% 29.97 in 10.0 mi WNW 13.8 mph 29.9 mph 0.00 in   Clear
10:53 AM 26.1 °F 12.7 °F -0.0 °F 32% 29.97 in 9.0 mi WNW 18.4 mph 36.8 mph 0.00 in Snow Light Snow
11:53 AM 27.0 °F 12.8 °F -0.0 °F 31% 29.99 in 10.0 mi WNW 21.9 mph 35.7 mph N/A   Clear
12:53 PM 30.0 °F 17.9 °F -0.0 °F 28% 29.99 in 10.0 mi WNW 18.4 mph 25.3 mph N/A   Clear
1:53 PM 30.9 °F 19.4 °F -0.9 °F 26% 30.00 in 10.0 mi WNW 17.3 mph 25.3 mph N/A   Clear
2:53 PM 30.9 °F 19.4 °F -0.0 °F 27% 30.01 in 10.0 mi West 17.3 mph 24.2 mph N/A   Clear
3:53 PM 30.0 °F 20.0 °F -0.9 °F 27% 30.04 in 10.0 mi West 12.7 mph 21.9 mph N/A   Clear
4:53 PM 30.0 °F 19.1 °F -2.0 °F 25% 30.06 in 10.0 mi WNW 15.0 mph - N/A   Clear
5:53 PM 28.9 °F 19.8 °F -4.0 °F 24% 30.09 in 10.0 mi West 10.4 mph - N/A   Clear
6:53 PM 27.0 °F 18.7 °F -0.9 °F 30% 30.11 in 10.0 mi WSW 8.1 mph - N/A   Clear
7:53 PM 26.1 °F 19.4 °F -0.9 °F 31% 30.13 in 10.0 mi WSW 5.8 mph - N/A   Clear
8:53 PM 24.1 °F 16.0 °F -0.0 °F 35% 30.14 in 10.0 mi WSW 6.9 mph - N/A   Clear
9:53 PM 24.1 °F 19.7 °F -0.9 °F 34% 30.15 in 10.0 mi WSW 3.5 mph - N/A   Clear
10:53 PM 24.1 °F 17.0 °F -0.0 °F 35% 30.16 in 10.0 mi WSW 5.8 mph - N/A   Clear
11:53 PM 24.1 °F 17.0 °F -0.0 °F 35% 30.16 in 10.0 mi West 5.8 mph - N/A   Clear